Tracking 27122 objects as of 24-Mar-2023
HD Live streaming from Space Station
objects crossing your sky now

STARLINK-3975

Track STARLINK-3975 now!
10-day predictions
STARLINK-3975 is classified as:


NORAD ID: 52620
Int'l Code: 2022-052Y
Perigee: 546.0 km
Apogee: 547.8 km
Inclination: 53.2 °
Period: 95.4 minutes
Semi major axis: 6917 km
RCS: Unknown
Launch date: May 14, 2022
Source: United States (US)
Launch site: AIR FORCE EASTERN TEST RANGE (AFETR)
Your satellite tracking list
Your tracking list is empty




NASA's NSSDC Master Catalog

Two Line Element Set (TLE):
1 52620U 22052Y   23082.37537464  .00003206  00000-0  21938-3 0  9997
2 52620  53.2160 102.8169 0001325  92.7326 267.3818 15.08842885 47387
Source of the keplerian elements: AFSPC